Location: Washington
(38.8950°N, 77.0367°W)
Time: 03:15:47
(UTC-04:00)

N. Korean satellite - Visible Passes

Search period start: 18 April 2015 00:00
Search period end: 28 April 2015 00:00
Orbit: 474 x 541 km, 97.3° (Epoch: 18 April)

Date Brightness Start Highest point End Pass type
(mag) Time Alt. Az. Time Alt. Az. Time Alt. Az.
18 Apr 7.8 20:46:52 10° S 20:50:18 42° W 20:53:43 10° NNW visible
19 Apr 6.7 20:29:23 10° S 20:32:58 76° W 20:36:32 10° NNW visible
20 Apr 6.6 20:12:08 10° SSE 20:15:40 60° ENE 20:19:11 10° N visible
21 Apr 9.6 21:30:57 10° WSW 21:32:30 12° W 21:33:53 10° WNW visible
22 Apr 9.2 21:12:15 10° SW 21:14:58 20° W 21:17:36 10° NW visible
23 Apr 8.3 20:54:14 10° SSW 20:57:29 33° W 21:00:42 10° NNW visible
24 Apr 7.2 20:36:31 10° S 20:40:01 58° W 20:43:31 10° NNW visible
25 Apr 6.5 20:19:03 10° SSE 20:22:36 78° ENE 20:26:08 10° N visible
27 Apr 9.4 21:19:27 10° SW 21:21:46 16° W 21:23:58 10° NW visible
